#�ϑ�����,���ϕ���,���ϕ���,�ő啗��,�ő啗����������,�ő�u�ԕ���,�ő�u�ԕ�����������
#(�N����),(m/s)   ,(16����),(m/s)   ,(16����)        ,(m/s)       ,(16����)            
2017/11/16 0:01,0.2,2,0.2,1,0.3,1
2017/11/16 0:02,0.2,2,0.2,1,0.3,1
2017/11/16 0:03,0.1,1,0.2,1,0.1,15
2017/11/16 0:04,0,1,0.1,1,0.3,15
2017/11/16 0:05,0,1,0,1,0.3,15
2017/11/16 0:06,0,1,0,1,0.1,16
2017/11/16 0:07,0,16,0,1,0.4,14
2017/11/16 0:08,0.1,16,0.1,2,0.6,14
2017/11/16 0:09,0.1,16,0.1,2,0.1,15
2017/11/16 0:10,0.1,16,0.1,1,0.1,15
2017/11/16 0:11,0.1,15,0.1,2,0,15
2017/11/16 0:12,0.1,15,0.1,2,0,15
2017/11/16 0:13,0,15,0.1,1,0,16
2017/11/16 0:14,0,15,0,16,0.1,9
2017/11/16 0:15,0,15,0,16,0.3,4
2017/11/16 0:16,0.1,16,0.1,16,0.5,1
2017/11/16 0:17,0.1,16,0.1,16,1,2
2017/11/16 0:18,0.2,1,0.2,16,1,2
2017/11/16 0:19,0.3,1,0.3,1,1.3,2
2017/11/16 0:20,0.3,1,0.3,1,1.3,2
2017/11/16 0:21,0.4,2,0.4,2,1,1
2017/11/16 0:22,0.4,2,0.4,2,1.1,2
2017/11/16 0:23,0.5,2,0.5,2,1.1,2
2017/11/16 0:24,0.6,2,0.6,2,1.1,2
2017/11/16 0:25,0.6,2,0.6,2,0.9,3
2017/11/16 0:26,0.7,2,0.7,2,1.3,1
2017/11/16 0:27,0.7,2,0.7,2,1.3,16
2017/11/16 0:28,0.6,2,0.7,2,0.9,1
2017/11/16 0:29,0.5,2,0.6,2,0.3,1
2017/11/16 0:30,0.5,2,0.5,2,0.1,3
2017/11/16 0:31,0.4,2,0.5,2,0.1,15
2017/11/16 0:32,0.4,1,0.4,2,0.1,15
2017/11/16 0:33,0.3,1,0.4,2,0.4,14
2017/11/16 0:34,0.3,16,0.3,2,0.1,13
2017/11/16 0:35,0.2,16,0.2,2,0,13
2017/11/16 0:36,0.1,16,0.2,2,0,15
2017/11/16 0:37,0,15,0.1,2,0.3,16
2017/11/16 0:38,0.1,15,0.1,2,1,15
2017/11/16 0:39,0.1,15,0.1,2,0.8,16
2017/11/16 0:40,0.2,15,0.2,2,0.6,16
2017/11/16 0:41,0.2,15,0.2,2,0.4,1
2017/11/16 0:42,0.2,15,0.2,1,0.1,10
2017/11/16 0:43,0.2,15,0.2,1,0,14
2017/11/16 0:44,0.2,15,0.2,16,0,14
2017/11/16 0:45,0.2,15,0.2,16,0.8,6
2017/11/16 0:46,0.3,15,0.3,15,1,5
2017/11/16 0:47,0.3,16,0.3,15,0.5,5
2017/11/16 0:48,0.3,2,0.3,15,0.5,6
2017/11/16 0:49,0.2,3,0.3,15,0.3,2
2017/11/16 0:50,0.2,3,0.2,15,1.3,2
2017/11/16 0:51,0.4,3,0.4,3,1.9,1
2017/11/16 0:52,0.5,3,0.5,3,1.9,1
2017/11/16 0:53,0.7,3,0.7,3,2.1,16
2017/11/16 0:54,0.9,3,0.9,3,2.6,1
2017/11/16 0:55,1,2,1,2,2.6,1
2017/11/16 0:56,1,2,1,2,1.8,1
2017/11/16 0:57,1.1,1,1.1,2,2.1,1
2017/11/16 0:58,1.2,1,1.2,1,1.4,16
2017/11/16 0:59,1.3,1,1.3,1,1.5,2
2017/11/16 1:00,1.4,1,1.4,1,1.5,1
2017/11/16 1:01,1.3,1,1.3,1,1.5,16
2017/11/16 1:02,1.3,1,1.3,1,2,1
2017/11/16 1:03,1.3,1,1.3,1,2.4,1
2017/11/16 1:04,1.3,1,1.3,1,2.2,16
2017/11/16 1:05,1.2,1,1.3,1,2.4,16
2017/11/16 1:06,1.3,1,1.3,1,2.7,16
2017/11/16 1:07,1.3,1,1.3,1,2.1,2
2017/11/16 1:08,1.4,1,1.4,1,3,1
2017/11/16 1:09,1.6,1,1.6,1,3,1
2017/11/16 1:10,1.6,1,1.6,1,2.4,16
2017/11/16 1:11,1.7,1,1.7,1,1.6,2
2017/11/16 1:12,1.5,1,1.6,1,0.9,2
2017/11/16 1:13,1.4,1,1.5,1,1.1,16
2017/11/16 1:14,1.5,1,1.5,1,2.4,11
2017/11/16 1:15,1.6,16,1.6,1,3.7,10
2017/11/16 1:16,1.6,16,1.6,1,2.6,10
2017/11/16 1:17,1.5,15,1.6,1,1,9
2017/11/16 1:18,1.3,12,1.5,1,0.5,8
2017/11/16 1:19,1.1,9,1.3,1,0.5,5
2017/11/16 1:20,0.9,10,1.1,1,0.6,14
2017/11/16 1:21,0.9,11,0.9,1,1.3,14
2017/11/16 1:22,1,11,1,16,2.1,13
2017/11/16 1:23,1.1,11,1.1,16,2.1,14
2017/11/16 1:24,1.1,12,1.1,16,1.4,14
2017/11/16 1:25,0.9,12,1.1,16,1.6,15
2017/11/16 1:26,0.9,13,0.9,16,2.1,15
2017/11/16 1:27,1,14,1,15,2.5,15
2017/11/16 1:28,1.2,15,1.2,11,3,16
2017/11/16 1:29,1.3,14,1.3,15,2.1,15
2017/11/16 1:30,1.3,14,1.3,15,1.3,14
2017/11/16 1:31,1.3,14,1.3,15,1,11
2017/11/16 1:32,1.2,14,1.3,15,1.1,12
2017/11/16 1:33,1.1,14,1.2,15,0.9,12
2017/11/16 1:34,1,14,1.1,15,0.6,10
2017/11/16 1:35,0.9,14,1,15,0.4,6
2017/11/16 1:36,0.8,13,0.9,15,1,2
2017/11/16 1:37,0.7,13,0.7,15,1.5,2
2017/11/16 1:38,0.7,14,0.7,15,2.7,1
2017/11/16 1:39,0.7,15,0.7,14,2.7,2
2017/11/16 1:40,0.7,15,0.7,14,1.6,15
2017/11/16 1:41,0.7,16,0.7,14,1.5,15
2017/11/16 1:42,0.7,1,0.7,14,1.1,16
2017/11/16 1:43,0.7,1,0.7,14,0.5,15
2017/11/16 1:44,0.7,1,0.7,14,0.4,15
2017/11/16 1:45,0.7,16,0.7,14,0.4,12
2017/11/16 1:46,0.7,15,0.7,13,0.5,13
2017/11/16 1:47,0.6,15,0.7,13,0.8,16
2017/11/16 1:48,0.6,15,0.6,14,0.5,16
2017/11/16 1:49,0.4,15,0.5,15,1.1,15
2017/11/16 1:50,0.5,15,0.5,15,1.5,15
2017/11/16 1:51,0.5,15,0.5,16,1.4,15
2017/11/16 1:52,0.5,15,0.5,1,1.4,15
2017/11/16 1:53,0.5,14,0.5,1,0.6,14
2017/11/16 1:54,0.6,14,0.6,16,0.8,14
2017/11/16 1:55,0.6,14,0.6,16,0.8,14
2017/11/16 1:56,0.6,14,0.6,15,0.8,12
2017/11/16 1:57,0.6,14,0.6,15,0.4,11
2017/11/16 1:58,0.6,14,0.6,14,0.1,16
2017/11/16 1:59,0.5,14,0.6,14,0.1,8
2017/11/16 2:00,0.4,14,0.5,14,0.8,2
2017/11/16 2:01,0.4,15,0.4,14,2,1
2017/11/16 2:02,0.5,15,0.5,14,2.7,1
2017/11/16 2:03,0.6,15,0.6,14,1.8,16
2017/11/16 2:04,0.6,16,0.6,14,1.1,2
2017/11/16 2:05,0.5,1,0.6,14,0.5,2
2017/11/16 2:06,0.5,1,0.5,14,0.1,6
2017/11/16 2:07,0.5,2,0.5,14,0.1,9
2017/11/16 2:08,0.5,2,0.5,14,0.1,10
2017/11/16 2:09,0.5,1,0.5,15,0.5,16
2017/11/16 2:10,0.6,1,0.6,15,1.1,16
2017/11/16 2:11,0.4,1,0.5,15,0.4,16
2017/11/16 2:12,0.3,1,0.4,15,0.6,4
2017/11/16 2:13,0.2,2,0.3,16,0.1,7
2017/11/16 2:14,0.2,2,0.2,16,0.4,1
2017/11/16 2:15,0.2,2,0.2,1,1.8,1
2017/11/16 2:16,0.4,2,0.4,1,3,1
2017/11/16 2:17,0.5,1,0.5,1,2,15
2017/11/16 2:18,0.6,1,0.6,1,2.4,15
2017/11/16 2:19,0.6,1,0.6,1,0.9,6
2017/11/16 2:20,0.6,2,0.6,1,1.6,13
2017/11/16 2:21,0.9,1,0.9,1,4.1,15
2017/11/16 2:22,1.1,1,1.1,1,3.6,2
2017/11/16 2:23,1.2,16,1.2,16,2,9
2017/11/16 2:24,1.3,16,1.3,16,2.1,10
2017/11/16 2:25,1.3,15,1.4,15,1.8,9
2017/11/16 2:26,1.2,13,1.3,15,1,12
2017/11/16 2:27,1.1,11,1.2,15,0,10
2017/11/16 2:28,1,11,1.1,15,0.6,1
2017/11/16 2:29,1,13,1,15,1.6,1
2017/11/16 2:30,1,11,1,15,1.4,16
2017/11/16 2:31,0.8,9,1,15,1.1,8
2017/11/16 2:32,0.6,9,0.8,15,2.2,5
2017/11/16 2:33,0.7,9,0.7,15,2.5,9
2017/11/16 2:34,0.8,8,0.8,15,3.2,7
2017/11/16 2:35,0.9,8,0.9,15,3.2,7
2017/11/16 2:36,0.9,7,0.9,13,1.9,7
2017/11/16 2:37,0.9,7,0.9,11,1.3,9
2017/11/16 2:38,0.9,7,0.9,11,0.6,3
2017/11/16 2:39,0.8,8,0.9,13,0.1,15
2017/11/16 2:40,0.8,8,0.8,10,0.5,16
2017/11/16 2:41,0.8,7,0.8,8,1.3,6
2017/11/16 2:42,0.8,7,0.8,8,1.5,6
2017/11/16 2:43,0.7,5,0.8,8,0.6,3
2017/11/16 2:44,0.4,5,0.6,8,0.3,13
2017/11/16 2:45,0.3,3,0.4,8,0.3,6
2017/11/16 2:46,0.3,3,0.3,7,0.5,5
2017/11/16 2:47,0.2,2,0.2,7,0.6,15
2017/11/16 2:48,0.3,2,0.3,7,1.6,15
2017/11/16 2:49,0.3,1,0.3,8,0.9,15
2017/11/16 2:50,0.3,2,0.3,8,0.6,5
2017/11/16 2:51,0.4,2,0.4,7,1.3,8
2017/11/16 2:52,0.4,2,0.4,6,1.5,5
2017/11/16 2:53,0.4,16,0.4,5,2.5,11
2017/11/16 2:54,0.5,1,0.5,16,1.8,12
2017/11/16 2:55,0.6,11,0.6,4,2,9
2017/11/16 2:56,0.7,11,0.7,11,1.8,10
2017/11/16 2:57,0.9,10,0.9,10,2.2,9
2017/11/16 2:58,1,9,1,9,2.7,9
2017/11/16 2:59,1.1,8,1.1,8,2.6,9
2017/11/16 3:00,1.2,9,1.2,8,2.4,9
2017/11/16 3:01,1.2,9,1.3,9,2.4,9
2017/11/16 3:02,1.2,9,1.2,9,1.6,12
2017/11/16 3:03,1.3,9,1.3,9,1.8,12
2017/11/16 3:04,1.3,9,1.3,9,2.9,10
2017/11/16 3:05,1.3,9,1.4,9,2.4,9
2017/11/16 3:06,1.4,9,1.4,9,2.6,10
2017/11/16 3:07,1.4,9,1.4,9,1.8,10
2017/11/16 3:08,1.2,10,1.3,9,1.1,14
2017/11/16 3:09,1.2,10,1.3,9,1.5,15
2017/11/16 3:10,1.2,11,1.2,9,2.2,15
2017/11/16 3:11,1.3,12,1.3,9,3.2,16
2017/11/16 3:12,1.4,12,1.4,9,2.9,2
2017/11/16 3:13,1.4,14,1.4,9,2,2
2017/11/16 3:14,1.4,15,1.4,9,1,2
2017/11/16 3:15,1.3,16,1.3,9,0.8,15
2017/11/16 3:16,1.2,16,1.2,9,2.1,15
2017/11/16 3:17,1.1,16,1.2,12,1,14
2017/11/16 3:18,1.1,16,1.1,12,1.3,14
2017/11/16 3:19,1.1,16,1.1,12,0.8,14
2017/11/16 3:20,1,16,1.1,12,0.6,14
2017/11/16 3:21,0.7,16,1,12,0.3,1
2017/11/16 3:22,0.6,15,0.7,12,1.5,9
2017/11/16 3:23,0.5,15,0.6,14,1.3,14
2017/11/16 3:24,0.5,14,0.5,15,2.1,15
2017/11/16 3:25,0.6,14,0.6,16,1.6,16
2017/11/16 3:26,0.5,14,0.6,16,0.9,8
2017/11/16 3:27,0.6,14,0.6,16,1.4,12
2017/11/16 3:28,0.5,14,0.6,16,0.8,15
2017/11/16 3:29,0.5,14,0.5,16,0.8,1
2017/11/16 3:30,0.6,14,0.6,16,1.6,15
2017/11/16 3:31,0.8,13,0.8,13,3.6,11
2017/11/16 3:32,0.9,13,0.9,13,2.6,12
2017/11/16 3:33,1,13,1,13,1.9,9
2017/11/16 3:34,1,12,1,13,2.4,12
2017/11/16 3:35,1.1,13,1.1,12,2,13
2017/11/16 3:36,1.2,13,1.2,13,1.8,12
2017/11/16 3:37,1.2,12,1.2,13,2,11
2017/11/16 3:38,1.4,12,1.4,12,1.8,12
2017/11/16 3:39,1.5,12,1.5,12,1.8,12
2017/11/16 3:40,1.6,12,1.6,12,2.6,13
2017/11/16 3:41,1.6,12,1.7,12,3.2,12
2017/11/16 3:42,1.7,12,1.7,12,3.8,14
2017/11/16 3:43,1.8,12,1.8,12,2.5,13
2017/11/16 3:44,1.6,12,1.8,12,1,12
2017/11/16 3:45,1.6,12,1.6,12,2.1,13
2017/11/16 3:46,1.6,12,1.6,12,3.5,10
2017/11/16 3:47,1.7,12,1.7,12,3.8,12
2017/11/16 3:48,1.7,12,1.7,12,2.1,12
2017/11/16 3:49,1.8,12,1.8,12,2.2,12
2017/11/16 3:50,1.7,12,1.8,12,3.2,12
2017/11/16 3:51,1.8,12,1.8,12,4.3,12
2017/11/16 3:52,1.8,12,1.8,12,4.7,12
2017/11/16 3:53,1.8,12,1.8,12,3.5,14
2017/11/16 3:54,2.1,12,2.1,12,8.2,12
2017/11/16 3:55,2.7,12,2.7,12,9.7,13
2017/11/16 3:56,2.8,13,2.8,13,6.2,13
2017/11/16 3:57,2.8,13,2.8,13,3.6,13
2017/11/16 3:58,2.9,12,2.9,12,5.7,9
2017/11/16 3:59,3,12,3,12,5.6,12
2017/11/16 4:00,3.1,12,3.1,12,4.2,11
2017/11/16 4:01,2.9,12,3.1,12,3.6,9
2017/11/16 4:02,2.9,12,2.9,12,4.4,11
2017/11/16 4:03,3.1,12,3.1,12,7.1,10
2017/11/16 4:04,3,12,3.1,12,5.7,12
2017/11/16 4:05,2.5,12,2.9,12,2,14
2017/11/16 4:06,2.6,12,2.6,12,7.4,10
2017/11/16 4:07,2.6,12,2.6,12,3.6,11
2017/11/16 4:08,2.6,12,2.6,12,4.3,11
2017/11/16 4:09,2.6,12,2.6,12,5.4,10
2017/11/16 4:10,2.7,12,2.7,12,5.1,12
2017/11/16 4:11,2.7,12,2.7,12,3.5,13
2017/11/16 4:12,2.6,12,2.7,12,2,14
2017/11/16 4:13,2.3,12,2.5,12,2,16
2017/11/16 4:14,2.1,12,2.3,12,1.4,12
2017/11/16 4:15,2.3,12,2.3,12,7.1,14
2017/11/16 4:16,2.2,13,2.3,12,6.7,15
2017/11/16 4:17,2.1,13,2.2,12,3.9,15
2017/11/16 4:18,2.1,13,2.1,12,4.3,16
2017/11/16 4:19,2,13,2.1,12,4.3,12
2017/11/16 4:20,1.9,13,2,12,2.7,13
2017/11/16 4:21,1.9,13,1.9,12,4.5,13
2017/11/16 4:22,2.1,13,2.1,12,6.3,13
2017/11/16 4:23,2.2,13,2.2,12,2.6,15
2017/11/16 4:24,2.2,13,2.2,12,3.3,14
2017/11/16 4:25,1.9,13,2.2,12,1.9,13
2017/11/16 4:26,1.9,13,1.9,13,3.7,13
2017/11/16 4:27,2,13,2,13,4.8,11
2017/11/16 4:28,2,12,2,13,3.3,1
2017/11/16 4:29,1.9,13,1.9,13,3.2,16
2017/11/16 4:30,1.8,13,1.9,13,2.9,15
2017/11/16 4:31,1.8,13,1.9,13,2.4,12
2017/11/16 4:32,1.7,13,1.8,13,3.1,12
2017/11/16 4:33,1.6,13,1.7,13,1.8,12
2017/11/16 4:34,1.6,13,1.6,13,2.4,10
2017/11/16 4:35,1.7,13,1.7,13,3.1,12
2017/11/16 4:36,1.7,13,1.7,13,3.6,12
2017/11/16 4:37,1.6,13,1.7,13,3.1,12
2017/11/16 4:38,1.7,13,1.7,12,6.2,11
2017/11/16 4:39,1.7,13,1.7,13,4.5,12
2017/11/16 4:40,2,13,2,13,5.7,14
2017/11/16 4:41,2,13,2,13,5.1,13
2017/11/16 4:42,2,12,2,13,2.1,13
2017/11/16 4:43,2,12,2,13,2.4,10
2017/11/16 4:44,2.4,13,2.4,13,7,13
2017/11/16 4:45,2.4,12,2.4,13,4.5,11
2017/11/16 4:46,2.4,12,2.4,13,6.9,13
2017/11/16 4:47,2.6,12,2.6,12,3.9,13
2017/11/16 4:48,2.5,12,2.6,12,3.8,14
2017/11/16 4:49,2.5,13,2.5,12,4.3,15
2017/11/16 4:50,2.4,12,2.5,12,4.7,12
2017/11/16 4:51,2.4,12,2.4,12,6.8,12
2017/11/16 4:52,2.6,12,2.6,12,7.1,11
2017/11/16 4:53,2.9,13,2.9,13,5.6,12
2017/11/16 4:54,2.7,13,2.9,13,3.3,14
2017/11/16 4:55,2.8,13,2.8,13,7,13
2017/11/16 4:56,2.9,13,3,13,5.8,15
2017/11/16 4:57,3,13,3,13,7.1,12
2017/11/16 4:58,3.2,12,3.2,12,7.6,13
2017/11/16 4:59,3.5,12,3.5,12,7.8,13
2017/11/16 5:00,3.6,12,3.6,12,5.4,12
2017/11/16 5:01,3.6,13,3.7,12,4.2,13
2017/11/16 5:02,3.6,12,3.6,12,7,13
2017/11/16 5:03,3.6,12,3.6,12,8.2,12
2017/11/16 5:04,4,12,4,12,7.9,12
2017/11/16 5:05,3.8,12,4,12,4.9,13
2017/11/16 5:06,4,12,4,12,8.7,9
2017/11/16 5:07,3.9,12,4,12,7.2,13
2017/11/16 5:08,3.8,12,3.9,12,5.8,13
2017/11/16 5:09,3.5,12,3.8,12,4.9,10
2017/11/16 5:10,3.6,12,3.6,12,8.2,10
2017/11/16 5:11,3.8,12,3.8,12,7.4,11
2017/11/16 5:12,3.8,12,3.8,12,5,10
2017/11/16 5:13,3.6,11,3.8,12,4.4,10
2017/11/16 5:14,3.3,11,3.6,12,4.1,10
2017/11/16 5:15,3.1,11,3.2,12,3,10
2017/11/16 5:16,3,11,3.1,12,4.5,11
2017/11/16 5:17,2.8,11,2.9,12,3.5,11
2017/11/16 5:18,2.7,11,2.8,12,6.9,9
2017/11/16 5:19,2.8,11,2.8,12,5.4,10
2017/11/16 5:20,2.5,11,2.8,12,2.9,11
2017/11/16 5:21,2.4,11,2.5,12,6.1,10
2017/11/16 5:22,2.2,11,2.4,12,4.9,10
2017/11/16 5:23,2.3,11,2.3,11,4.2,11
2017/11/16 5:24,2.3,11,2.3,11,4.5,11
2017/11/16 5:25,2.4,11,2.4,11,3.9,14
2017/11/16 5:26,2.4,11,2.5,11,5,14
2017/11/16 5:27,2.4,11,2.4,11,3.8,10
2017/11/16 5:28,2.2,12,2.4,11,1.8,11
2017/11/16 5:29,2.1,12,2.2,11,2.6,10
2017/11/16 5:30,2.2,12,2.2,11,5.2,14
2017/11/16 5:31,2,12,2.2,11,3.3,9
2017/11/16 5:32,2.1,12,2.1,11,4.5,11
2017/11/16 5:33,2.1,12,2.1,11,4.3,11
2017/11/16 5:34,1.9,12,2.1,11,2.5,12
2017/11/16 5:35,1.8,12,1.9,11,2.5,14
2017/11/16 5:36,1.7,12,1.8,11,3.5,12
2017/11/16 5:37,1.8,12,1.8,11,3.6,12
2017/11/16 5:38,1.9,12,1.9,12,3.3,12
2017/11/16 5:39,1.9,12,2,12,1.4,13
2017/11/16 5:40,1.8,12,1.9,12,3.6,11
2017/11/16 5:41,1.9,12,1.9,12,4.5,11
2017/11/16 5:42,1.8,12,1.9,12,4.7,10
2017/11/16 5:43,1.8,12,1.8,12,3.6,11
2017/11/16 5:44,1.9,12,1.9,12,3,12
2017/11/16 5:45,2,12,2,12,3.7,13
2017/11/16 5:46,2,12,2,12,4.9,15
2017/11/16 5:47,1.9,12,2,12,3.9,16
2017/11/16 5:48,1.8,12,1.8,12,2.5,13
2017/11/16 5:49,1.9,12,1.9,12,2.6,12
2017/11/16 5:50,1.8,12,1.9,12,2.1,8
2017/11/16 5:51,1.6,12,1.8,12,1.1,8
2017/11/16 5:52,1.6,12,1.6,12,4.4,10
2017/11/16 5:53,1.6,12,1.6,12,5.2,13
2017/11/16 5:54,1.7,12,1.7,12,4.5,12
2017/11/16 5:55,1.8,12,1.8,12,4.8,13
2017/11/16 5:56,1.9,12,1.9,12,3.8,12
2017/11/16 5:57,2,11,2,12,5,9
2017/11/16 5:58,2.3,11,2.3,11,6,10
2017/11/16 5:59,2.4,11,2.4,11,4.2,10
2017/11/16 6:00,2.6,11,2.6,11,5.2,11
2017/11/16 6:01,2.8,11,2.8,11,3.7,11
2017/11/16 6:02,2.7,11,2.8,11,2.5,13
2017/11/16 6:03,2.6,11,2.7,11,3.7,8
2017/11/16 6:04,2.6,11,2.7,11,5,12
2017/11/16 6:05,2.4,11,2.6,11,2.5,12
2017/11/16 6:06,2.3,11,2.4,11,3.6,10
2017/11/16 6:07,2.2,11,2.3,11,2.5,10
2017/11/16 6:08,1.9,11,2.1,11,2.2,10
2017/11/16 6:09,1.9,11,1.9,11,3.3,8
2017/11/16 6:10,1.8,11,1.9,11,4.1,10
2017/11/16 6:11,1.8,11,1.8,11,3.8,10
2017/11/16 6:12,1.7,11,1.8,11,1.9,12
2017/11/16 6:13,1.7,11,1.7,11,2,14
2017/11/16 6:14,1.6,11,1.7,11,1.9,12
2017/11/16 6:15,1.6,11,1.6,11,3.3,10
2017/11/16 6:16,1.6,11,1.6,11,3.2,10
2017/11/16 6:17,1.6,11,1.6,11,2.9,10
2017/11/16 6:18,1.6,11,1.6,11,2.9,9
2017/11/16 6:19,1.7,11,1.7,11,6,11
2017/11/16 6:20,1.7,11,1.7,11,4.9,12
2017/11/16 6:21,1.6,11,1.7,11,3.3,13
2017/11/16 6:22,1.8,11,1.8,11,3.9,13
2017/11/16 6:23,1.8,11,1.8,11,2.5,10
2017/11/16 6:24,1.8,11,1.8,11,2.4,10
2017/11/16 6:25,1.8,12,1.8,11,3,12
2017/11/16 6:26,1.7,12,1.8,11,3.3,12
2017/11/16 6:27,1.8,12,1.8,11,3.3,12
2017/11/16 6:28,1.7,12,1.8,11,0.9,13
2017/11/16 6:29,1.4,12,1.6,11,1,11
2017/11/16 6:30,1.2,12,1.4,11,2,11
2017/11/16 6:31,1.4,12,1.4,11,4.5,11
2017/11/16 6:32,1.4,12,1.4,11,3.6,11
2017/11/16 6:33,1.5,12,1.5,11,3.6,10
2017/11/16 6:34,1.7,12,1.7,11,4.8,13
2017/11/16 6:35,1.9,11,1.9,11,4.9,11
2017/11/16 6:36,2,11,2,11,4.5,9
2017/11/16 6:37,2.1,11,2.1,11,4.7,10
2017/11/16 6:38,2.2,11,2.2,11,3.2,10
2017/11/16 6:39,2.4,11,2.4,11,3.3,11
2017/11/16 6:40,2.5,11,2.5,11,2.5,12
2017/11/16 6:41,2.4,11,2.5,11,3.2,9
2017/11/16 6:42,2.4,11,2.4,11,3.5,12
2017/11/16 6:43,2.5,11,2.5,11,3.5,11
2017/11/16 6:44,2.3,11,2.4,11,2.2,13
2017/11/16 6:45,2.2,11,2.3,11,3.1,12
2017/11/16 6:46,1.9,11,2.1,11,1.9,12
2017/11/16 6:47,1.8,11,1.9,11,2.1,10
2017/11/16 6:48,1.8,11,1.8,11,3.2,10
2017/11/16 6:49,1.8,11,1.8,11,3.6,9
2017/11/16 6:50,1.9,11,1.9,11,4.1,11
2017/11/16 6:51,1.9,11,1.9,11,3.7,10
2017/11/16 6:52,2,11,2,11,4.2,11
2017/11/16 6:53,1.9,11,1.9,11,3.1,10
2017/11/16 6:54,2,11,2,11,3.5,10
2017/11/16 6:55,2,10,2,11,3.2,9
2017/11/16 6:56,2,11,2,11,2.1,12
2017/11/16 6:57,2,11,2,11,1.6,10
2017/11/16 6:58,2,11,2,11,2.2,12
2017/11/16 6:59,1.9,11,2,11,2.5,11
2017/11/16 7:00,1.8,11,1.9,11,2.2,10
2017/11/16 7:01,1.7,11,1.8,11,1.8,11
2017/11/16 7:02,1.5,11,1.7,11,2.1,10
2017/11/16 7:03,1.5,11,1.6,11,2.2,11
2017/11/16 7:04,1.3,11,1.5,11,1.3,13
2017/11/16 7:05,1.2,11,1.3,10,1.1,13
2017/11/16 7:06,1.1,11,1.2,11,2.6,14
2017/11/16 7:07,1.3,11,1.3,11,3.6,14
2017/11/16 7:08,1.3,12,1.3,11,2.5,13
2017/11/16 7:09,1.2,12,1.2,11,1.3,12
2017/11/16 7:10,1.2,12,1.2,11,2.2,12
2017/11/16 7:11,1.3,13,1.3,11,2.9,12
2017/11/16 7:12,1.4,13,1.4,11,3.6,12
2017/11/16 7:13,1.4,13,1.4,11,2,14
2017/11/16 7:14,1.4,13,1.4,13,2,8
2017/11/16 7:15,1.6,12,1.6,12,3.7,11
2017/11/16 7:16,1.7,12,1.7,12,3.7,10
2017/11/16 7:17,1.6,12,1.7,12,2.4,10
2017/11/16 7:18,1.6,12,1.6,12,2.4,11
2017/11/16 7:19,1.6,11,1.6,12,3,9
2017/11/16 7:20,1.6,11,1.6,12,2.4,10
2017/11/16 7:21,1.5,11,1.6,12,2.9,9
2017/11/16 7:22,1.4,11,1.5,12,3.5,12
2017/11/16 7:23,1.6,11,1.6,12,4.3,13
2017/11/16 7:24,1.8,11,1.8,11,3.6,13
2017/11/16 7:25,1.8,12,1.8,11,3.7,12
2017/11/16 7:26,1.8,12,1.8,11,3.2,1
2017/11/16 7:27,1.8,12,1.8,11,2.2,15
2017/11/16 7:28,1.7,12,1.8,11,0.6,14
2017/11/16 7:29,1.7,12,1.7,11,2,10
2017/11/16 7:30,1.7,13,1.7,11,2.2,12
2017/11/16 7:31,1.6,12,1.6,11,3.1,9
2017/11/16 7:32,1.7,12,1.7,11,3.7,10
2017/11/16 7:33,1.6,12,1.7,11,4.2,12
2017/11/16 7:34,1.5,12,1.6,11,3.2,9
2017/11/16 7:35,1.4,12,1.5,12,3,11
2017/11/16 7:36,1.4,11,1.4,12,3.8,12
2017/11/16 7:37,1.6,11,1.6,12,4.4,10
2017/11/16 7:38,1.8,11,1.8,11,4.5,10
2017/11/16 7:39,2,11,2,11,3.3,9
2017/11/16 7:40,2.1,11,2.1,11,3.8,11
2017/11/16 7:41,2,11,2.1,11,1.8,15
2017/11/16 7:42,2,11,2,11,3.3,16
2017/11/16 7:43,1.8,11,1.9,11,2.4,9
2017/11/16 7:44,1.7,11,1.8,11,1.5,12
2017/11/16 7:45,1.8,11,1.8,11,3.5,13
2017/11/16 7:46,1.8,11,1.8,11,5.5,13
2017/11/16 7:47,2.1,12,2.1,11,8.2,14
2017/11/16 7:48,2.1,12,2.1,11,5,14
2017/11/16 7:49,2,12,2.1,11,3.9,12
2017/11/16 7:50,1.9,12,2,11,1.9,11
2017/11/16 7:51,1.9,12,2,12,2.5,11
2017/11/16 7:52,2,12,2,12,3.9,10
2017/11/16 7:53,2.2,12,2.2,12,4.8,12
2017/11/16 7:54,2.3,12,2.3,12,3,9
2017/11/16 7:55,2.4,12,2.4,12,5.1,13
2017/11/16 7:56,2.3,12,2.4,12,3.8,12
2017/11/16 7:57,2.1,12,2.2,12,5.1,10
2017/11/16 7:58,2.1,11,2.1,12,5.2,8
2017/11/16 7:59,2.4,11,2.4,12,7,9
2017/11/16 8:00,2.8,11,2.8,11,6.8,10
2017/11/16 8:01,3,11,3,11,6.2,10
2017/11/16 8:02,3.1,11,3.1,11,4.4,11
2017/11/16 8:03,3.4,11,3.4,11,8.5,11
2017/11/16 8:04,3.6,11,3.6,11,6.1,13
2017/11/16 8:05,3.5,11,3.6,11,4.3,12
2017/11/16 8:06,3.4,11,3.5,11,2,13
2017/11/16 8:07,3.2,11,3.4,11,0.9,9
2017/11/16 8:08,3.1,12,3.1,11,5.1,11
2017/11/16 8:09,3.1,11,3.2,11,6,10
2017/11/16 8:10,2.9,12,3,11,7.8,10
2017/11/16 8:11,2.9,11,3,11,6.8,10
2017/11/16 8:12,2.9,11,2.9,11,5.7,10
2017/11/16 8:13,2.6,11,3,11,4.2,9
2017/11/16 8:14,2.5,11,2.6,11,5.8,10
2017/11/16 8:15,2.6,11,2.6,11,6.9,9
2017/11/16 8:16,2.8,10,2.8,11,5.2,10
2017/11/16 8:17,3.1,10,3.1,12,4.7,9
2017/11/16 8:18,3.2,10,3.2,12,6.4,10
2017/11/16 8:19,3.3,10,3.3,10,5.8,10
2017/11/16 8:20,3,10,3.3,10,3.2,10
2017/11/16 8:21,2.9,10,3,10,4.5,11
2017/11/16 8:22,3,10,3,10,5.8,10
2017/11/16 8:23,3,11,3,10,4.2,11
2017/11/16 8:24,3.1,10,3.1,10,5,10
2017/11/16 8:25,2.8,11,3,10,4.2,10
2017/11/16 8:26,2.8,11,2.9,10,4.5,11
2017/11/16 8:27,2.7,11,2.7,10,4.4,10
2017/11/16 8:28,2.6,11,2.7,10,5.6,11
2017/11/16 8:29,2.5,11,2.6,10,4.5,10
2017/11/16 8:30,2.6,11,2.6,10,6.2,10
2017/11/16 8:31,2.7,11,2.7,10,6.7,9
2017/11/16 8:32,2.7,11,2.7,10,6.9,11
2017/11/16 8:33,2.9,11,2.9,10,7.1,9
2017/11/16 8:34,2.8,10,2.9,10,4.1,9
2017/11/16 8:35,3,10,3,10,6.5,8
2017/11/16 8:36,2.9,10,2.9,10,6.4,9
2017/11/16 8:37,2.9,10,2.9,10,5.1,9
2017/11/16 8:38,2.8,10,2.9,10,5.2,9
2017/11/16 8:39,2.8,10,2.8,10,3.9,10
2017/11/16 8:40,2.8,10,2.8,10,6.1,10
2017/11/16 8:41,2.9,10,2.9,10,7.2,10
2017/11/16 8:42,2.9,10,3,10,6.3,10
2017/11/16 8:43,2.8,10,2.9,10,3.9,10
2017/11/16 8:44,2.8,10,2.8,10,3.9,12
2017/11/16 8:45,2.6,10,2.8,10,3.5,8
2017/11/16 8:46,2.8,10,2.8,10,6.9,10
2017/11/16 8:47,3,10,3,10,7.6,10
2017/11/16 8:48,3.2,10,3.2,10,9.7,10
2017/11/16 8:49,3.6,10,3.6,10,9,10
2017/11/16 8:50,4,10,4,10,9.1,10
2017/11/16 8:51,4.1,10,4.1,10,7,10
2017/11/16 8:52,4.2,10,4.2,10,7,9
2017/11/16 8:53,4.3,10,4.3,10,7.5,10
2017/11/16 8:54,4.3,10,4.3,10,6.7,9
2017/11/16 8:55,4.4,10,4.4,10,4.7,11
2017/11/16 8:56,4.2,10,4.4,10,4.4,9
2017/11/16 8:57,4,10,4.2,10,3.6,10
2017/11/16 8:58,3.7,10,4,10,3.9,10
2017/11/16 8:59,3.4,10,3.7,10,5.1,13
2017/11/16 9:00,3,11,3.4,10,3.2,14
2017/11/16 9:01,2.6,11,3,10,1.9,13
2017/11/16 9:02,2.2,11,2.5,10,2.4,10
2017/11/16 9:03,1.9,11,2.2,10,2.4,15
2017/11/16 9:04,1.9,12,1.9,10,4.8,13
2017/11/16 9:05,1.9,12,2,10,4.1,16
2017/11/16 9:06,1.8,13,1.9,10,2.9,13
2017/11/16 9:07,1.7,12,1.8,10,2.6,6
2017/11/16 9:08,1.6,12,1.7,10,4.2,11
2017/11/16 9:09,1.5,12,1.6,11,4.9,10
2017/11/16 9:10,1.6,12,1.6,11,4.5,10
2017/11/16 9:11,1.7,12,1.7,11,4.1,10
2017/11/16 9:12,1.6,12,1.7,11,1.5,14
2017/11/16 9:13,1.7,12,1.7,12,5.1,12
2017/11/16 9:14,1.6,12,1.7,12,2.2,11
2017/11/16 9:15,1.5,11,1.6,12,5,8
2017/11/16 9:16,1.7,11,1.7,13,6.1,11
2017/11/16 9:17,1.9,11,1.9,11,6.8,9
2017/11/16 9:18,2,11,2,11,3.7,10
2017/11/16 9:19,2,11,2,11,4.5,10
2017/11/16 9:20,1.9,12,2,11,3.2,11
2017/11/16 9:21,1.8,11,1.9,11,3.1,8
2017/11/16 9:22,1.9,11,1.9,11,2.6,7
2017/11/16 9:23,1.8,11,1.9,11,2.5,7
2017/11/16 9:24,1.9,10,1.9,11,5.4,10
2017/11/16 9:25,1.8,10,1.9,11,1.6,8
2017/11/16 9:26,1.6,10,1.7,11,2.7,12
2017/11/16 9:27,1.5,10,1.5,11,6.5,10
2017/11/16 9:28,1.7,10,1.7,11,6.7,11
2017/11/16 9:29,1.9,10,1.9,11,6.7,10
2017/11/16 9:30,2.1,10,2.1,10,5.4,10
2017/11/16 9:31,2.3,10,2.3,10,3.2,10
2017/11/16 9:32,2.5,10,2.5,10,7.4,10
2017/11/16 9:33,2.6,10,2.6,10,4.3,10
2017/11/16 9:34,2.7,10,2.7,10,4.8,9
2017/11/16 9:35,3.1,10,3.1,10,6.4,10
2017/11/16 9:36,3.4,10,3.4,10,6.8,10
2017/11/16 9:37,3.4,10,3.5,10,4.9,12
2017/11/16 9:38,3.5,10,3.5,10,7.9,12
2017/11/16 9:39,3.4,11,3.5,10,5.8,11
2017/11/16 9:40,3.3,11,3.4,10,5.6,12
2017/11/16 9:41,3.3,11,3.3,10,3.6,11
2017/11/16 9:42,3.2,11,3.3,10,3.5,11
2017/11/16 9:43,3.1,11,3.2,10,2.7,11
2017/11/16 9:44,3,11,3.1,10,3.6,10
2017/11/16 9:45,2.8,11,3,10,4.4,9
2017/11/16 9:46,2.6,11,2.8,10,3,12
2017/11/16 9:47,2.4,11,2.5,10,2.7,10
2017/11/16 9:48,2.1,11,2.3,10,5.5,11
2017/11/16 9:49,2,11,2.1,11,4.8,10
2017/11/16 9:50,2,11,2,11,4.4,10
2017/11/16 9:51,2,11,2,11,3.6,11
2017/11/16 9:52,2,11,2,11,4.8,10
2017/11/16 9:53,2.3,10,2.3,11,6,10
2017/11/16 9:54,2.6,10,2.6,11,6.2,10
2017/11/16 9:55,2.6,11,2.6,11,4.7,10
2017/11/16 9:56,2.7,10,2.7,10,3.7,9
2017/11/16 9:57,2.8,10,2.8,10,3.7,11
2017/11/16 9:58,2.7,11,2.8,10,1.9,9
2017/11/16 9:59,2.5,10,2.7,10,1.5,5
2017/11/16 10:00,2.4,10,2.5,10,3.2,9
2017/11/16 10:01,2.4,10,2.4,10,2.9,9
2017/11/16 10:02,2.3,10,2.4,10,3.6,12
2017/11/16 10:03,2.2,10,2.3,10,5.2,10
2017/11/16 10:04,2.1,10,2.2,10,7.7,10
2017/11/16 10:05,2.1,10,2.1,10,5.1,13
2017/11/16 10:06,2.1,11,2.1,10,6.8,11
2017/11/16 10:07,2.3,11,2.3,10,8.5,11
2017/11/16 10:08,2.5,11,2.5,11,5.4,13
2017/11/16 10:09,2.7,11,2.7,11,6.5,10
2017/11/16 10:10,2.9,11,2.9,11,6.7,10
2017/11/16 10:11,3,11,3,11,3.9,12
2017/11/16 10:12,2.9,11,2.9,11,3.9,9
2017/11/16 10:13,2.7,11,2.9,11,2.1,10
2017/11/16 10:14,2.6,11,2.6,11,4.8,11
2017/11/16 10:15,2.6,11,2.6,11,4.4,12
2017/11/16 10:16,2.4,11,2.6,11,3.2,9
2017/11/16 10:17,2.1,11,2.4,11,2.5,15
2017/11/16 10:18,2.2,11,2.2,11,6.7,10
2017/11/16 10:19,2,11,2.2,11,4.7,8
2017/11/16 10:20,2,11,2,11,5.7,11
2017/11/16 10:21,2.1,11,2.1,11,7.2,10
2017/11/16 10:22,2.2,11,2.2,11,5.4,13
2017/11/16 10:23,2.3,12,2.3,11,4.9,13
2017/11/16 10:24,2.1,12,2.2,11,1.3,3
2017/11/16 10:25,2,13,2,11,3.9,15
2017/11/16 10:26,2,13,2.1,11,3.6,14
2017/11/16 10:27,2,13,2,12,1,3
2017/11/16 10:28,1.9,14,2,12,3.5,14
2017/11/16 10:29,1.8,14,1.9,12,3.1,1
2017/11/16 10:30,1.6,14,1.7,12,1.8,10
2017/11/16 10:31,1.4,14,1.6,12,2.4,12
2017/11/16 10:32,1.3,14,1.4,12,4.7,12
2017/11/16 10:33,1.2,14,1.3,12,4.1,9
2017/11/16 10:34,1.4,13,1.4,13,3.9,11
2017/11/16 10:35,1.4,12,1.4,13,3.6,9
2017/11/16 10:36,1.4,12,1.4,13,4.2,8
2017/11/16 10:37,1.5,12,1.5,13,2,13
2017/11/16 10:38,1.5,11,1.5,14,4.5,10
2017/11/16 10:39,1.5,10,1.5,14,2.4,9
2017/11/16 10:40,1.6,10,1.6,14,4.5,10
2017/11/16 10:41,1.7,10,1.7,10,4.8,9
2017/11/16 10:42,1.9,10,1.9,10,4.2,9
2017/11/16 10:43,2,10,2,10,4.9,10
2017/11/16 10:44,2,10,2,10,4.7,9
2017/11/16 10:45,2,10,2.1,10,5.5,11
2017/11/16 10:46,2.1,10,2.1,10,5.6,12
2017/11/16 10:47,2.3,10,2.3,10,5.6,12